Owyhee River@Rome

Start Stop
DateFlow
CFS
Gauge
Feet
Temp
F
DateFlow
CFS
Gauge
Feet
Temp
F
10/25/2020 06:151241.5345.7
10/25/2020 06:001241.5345.8
10/25/2020 05:451241.5345.9
10/25/2020 05:301241.5346.1
10/25/2020 05:151241.5346.3
10/25/2020 05:001241.5346.4
10/25/2020 04:451241.5346.6
10/25/2020 04:301251.5346.7
10/25/2020 04:151241.5346.9
10/25/2020 04:001241.5347
10/25/2020 03:451241.5347.1
10/25/2020 03:301251.5347.2
10/25/2020 03:151241.5347.3
10/25/2020 03:001241.5347.5
10/25/2020 02:451241.5347.6
10/25/2020 02:301251.5347.7
10/25/2020 02:151241.5347.8
10/25/2020 02:001241.5347.9
10/25/2020 01:451241.5348.1
10/25/2020 01:301251.5348.2
10/25/2020 01:15124 48.3
10/25/2020 01:001241.5348.4
10/25/2020 00:451201.5248.6
10/25/2020 00:301251.5348.8
10/25/2020 00:15124 49
10/25/2020 00:001241.5349.1
10/24/2020 23:451201.5249.3
10/24/2020 23:301251.5349.7
10/24/2020 23:151201.5249.9
10/24/2020 23:00  50.1
10/24/2020 22:45120 50.3
10/24/2020 22:301211.5250.7
10/24/2020 22:151241.5351.1
10/24/2020 22:001201.5251.3
10/24/2020 21:45120 51.6
10/24/2020 21:30121 51.7
10/24/2020 21:15120 51.9
10/24/2020 21:001201.5252.4
10/24/2020 20:451241.5352.6
10/24/2020 20:301211.5252.8
10/24/2020 20:151201.5253
10/24/2020 20:001241.5353.2
10/24/2020 19:451201.5253.4
10/24/2020 19:301211.5253.5
10/24/2020 19:151241.5353.5
10/24/2020 19:001201.5253.9
10/24/2020 18:45120 54
10/24/2020 18:30121 54.2
10/24/2020 18:15120 54.4
10/24/2020 18:00  54.6
10/24/2020 17:45120 54.7
10/24/2020 17:30121 54.7
10/24/2020 17:15120 54.8
10/24/2020 17:00  54.9
10/24/2020 16:45120  
10/24/2020 16:301211.5254.9
10/24/2020 16:151241.5354.8
10/24/2020 16:001201.5254.6
10/24/2020 15:451161.5154.5
10/24/2020 15:301211.5254.3
10/24/2020 15:15120 54.2
10/24/2020 15:00  53.7
10/24/2020 14:45120 53.7
10/24/2020 14:301211.5253.4
10/24/2020 14:151161.5153.2
10/24/2020 14:001201.5253
10/24/2020 13:45120 52.6
10/24/2020 13:30121 52.2
10/24/2020 13:15120 51.8
10/24/2020 13:00  51.8
10/24/2020 12:45120 51.7
10/24/2020 12:30121 51.3
10/24/2020 12:15120 51
10/24/2020 12:00  50.7
10/24/2020 11:451201.5250.4
10/24/2020 11:301211.5250
10/24/2020 11:151241.5350
10/24/2020 11:001201.5249.8
10/24/2020 10:451201.5249.6
10/24/2020 10:301251.5349.4
10/24/2020 10:151201.5249.3
10/24/2020 10:00  49.2
10/24/2020 09:45  49.1
10/24/2020 09:301211.5249
10/24/2020 09:15  49
10/24/2020 09:00  48.9
10/24/2020 08:45120  
10/24/2020 08:30121 48.9
10/24/2020 08:15120 48.8
10/24/2020 07:45120  
10/24/2020 07:30121  
10/24/2020 07:15120  
10/24/2020 06:45120  
10/24/2020 06:30121  
10/24/2020 06:15120  
10/24/2020 05:45120  
10/24/2020 05:30121  
10/24/2020 05:15120  
10/24/2020 04:45120  
10/24/2020 04:30121  
10/24/2020 04:15120  
10/24/2020 03:45120  
10/24/2020 03:30121  
10/24/2020 03:15120  
10/24/2020 02:45120 48.8
10/24/2020 02:30121 48.9
10/24/2020 02:15120 49
10/24/2020 01:45120 49
10/24/2020 01:301211.5249.1
10/24/2020 01:15120 49.2
10/24/2020 01:00  49.2
10/24/2020 00:45120 49.3
10/24/2020 00:30121 49.3
10/24/2020 00:15120 49.4
10/24/2020 00:00  49.5
10/23/2020 23:45120 49.5
10/23/2020 23:30121 49.6
10/23/2020 23:15120 49.8
10/23/2020 23:00  49.9
10/23/2020 22:45120 50
10/23/2020 22:30121 50.1
10/23/2020 22:15120 50.3
10/23/2020 22:00  50.5
10/23/2020 21:45120 50.7
10/23/2020 21:30121 50.9
10/23/2020 21:15120 51
10/23/2020 21:00  51.1
10/23/2020 20:45120 51.3
10/23/2020 20:30121 51.6
10/23/2020 20:15120 51.8
10/23/2020 20:00  51.9
10/23/2020 19:45120 52
10/23/2020 19:30121 52
10/23/2020 19:15120 52.1
10/23/2020 19:00  52.2
10/23/2020 18:45120 52.3
10/23/2020 18:30121 52.3
10/23/2020 18:15120 52.4
10/23/2020 18:00  52.4
10/23/2020 17:45120 52.5
10/23/2020 17:30121  
10/23/2020 17:15120 52.5
10/23/2020 17:00  52.4
10/23/2020 16:45120 52.3
10/23/2020 16:30121 52.2
10/23/2020 16:15120 52
10/23/2020 16:00  51.9
10/23/2020 15:45120 51.7
10/23/2020 15:30121 51.5
10/23/2020 15:15120 51.2
10/23/2020 15:00  50.9
10/23/2020 14:45120 50.7
10/23/2020 14:30121 50.3
10/23/2020 14:15120 50
10/23/2020 14:00  49.7
10/23/2020 13:45120 49.4
10/23/2020 13:30121 49.1
10/23/2020 13:15120 48.9
10/23/2020 13:00  48.7
10/23/2020 12:45120 48.4
10/23/2020 12:30121 48.2
10/23/2020 12:15120 48
10/23/2020 12:00  47.8
10/23/2020 11:45120 47.7
10/23/2020 11:30121 47.5
10/23/2020 11:15120 47.4
10/23/2020 11:00  47.1
10/23/2020 10:45120 47
10/23/2020 10:30121 46.8
10/23/2020 10:15120 46.7
10/23/2020 10:00  46.5
10/23/2020 09:45120 46.4
10/23/2020 09:30121 46.4
10/23/2020 09:15120 46.5
10/23/2020 08:45120 46.5
10/23/2020 08:30121 46.6
10/23/2020 08:15120 46.7
10/23/2020 08:00  46.7
10/23/2020 07:45  46.8
10/23/2020 07:30  46.9
10/23/2020 07:15  47
10/23/2020 07:00  47
10/23/2020 06:45120 47.1
10/23/2020 06:30121 47.1
10/23/2020 06:15120 47.2
10/23/2020 06:00  47.2
10/23/2020 05:45120 47.3
10/23/2020 05:30121 47.3
10/23/2020 05:15120 47.4
10/23/2020 05:00  47.4
10/23/2020 04:45120 47.5
10/23/2020 04:30121 47.5
10/23/2020 04:15120 47.6
10/23/2020 04:00  47.7
10/23/2020 03:45120 47.7
10/23/2020 03:30121 47.8
10/23/2020 03:15120 47.9
10/23/2020 03:00  48
10/23/2020 02:45120 48.1
10/23/2020 02:30121 48.2
10/23/2020 02:151201.5248.3
10/23/2020 02:00  48.4
10/23/2020 01:45120 48.5
10/23/2020 01:301211.5248.6
10/23/2020 01:15120 48.7
10/23/2020 01:00  48.9
10/23/2020 00:45120 49
10/23/2020 00:30121 49.2
10/23/2020 00:15120 49.4
10/23/2020 00:00  49.6
10/22/2020 23:45120 49.8
10/22/2020 23:30121 49.9
10/22/2020 23:15120 50
10/22/2020 23:00  50.2
10/22/2020 22:45120 50.4
10/22/2020 22:30121 50.6
10/22/2020 22:15120 50.7
10/22/2020 22:00  50.9
10/22/2020 21:45120 51.1
10/22/2020 21:30121 51.2
10/22/2020 21:15120 51.4
10/22/2020 21:00  51.6
10/22/2020 20:45120 51.8
10/22/2020 20:30121 52
10/22/2020 20:15120 52.2
10/22/2020 20:00  52.4
10/22/2020 19:45120 52.5
10/22/2020 19:30121 52.6
10/22/2020 19:15120 52.6
10/22/2020 19:00  52.7
10/22/2020 18:45120 52.8
10/22/2020 18:30121 53
10/22/2020 18:15120 53.2
10/22/2020 17:45120 53.2
10/22/2020 17:30121 53.3
10/22/2020 17:15120 53.2
10/22/2020 17:00  53.2
10/22/2020 16:45120 53.1
10/22/2020 16:30121 53.1
10/22/2020 16:15120 53
10/22/2020 16:00  52.9
10/22/2020 15:45120 52.7
10/22/2020 15:30121 52.5
10/22/2020 15:15120 52.3
10/22/2020 15:00  52.1
10/22/2020 14:45120 51.8
10/22/2020 14:30121 51.5
10/22/2020 14:151201.5251.2
10/22/2020 14:001241.5351
10/22/2020 13:451201.5250.8
10/22/2020 13:30121 50.5
10/22/2020 13:15120 50.2
10/22/2020 13:00  50
10/22/2020 12:45120 50
10/22/2020 12:30121 49.7
10/22/2020 12:15120 49.6
10/22/2020 12:00  49.4
10/22/2020 11:45120 49.3
10/22/2020 11:30121 49.2
10/22/2020 11:15120 49
10/22/2020 11:00  48.8
10/22/2020 10:45120 48.6
10/22/2020 10:30121 48.6
10/22/2020 10:15120 48.4
10/22/2020 10:00  48.3
10/22/2020 09:45120 48.3
10/22/2020 09:30121 48.4
10/22/2020 09:15120 48.5
10/22/2020 09:00  48.5
10/22/2020 08:45120 48.6
10/22/2020 08:30121 48.7
10/22/2020 08:15120 48.8
10/22/2020 08:00  48.9
10/22/2020 07:45120 49
10/22/2020 07:30121 49.1
10/22/2020 07:15120 49.1
10/22/2020 07:00  49.3
10/22/2020 06:45120 49.4
10/22/2020 06:30121 49.5
10/22/2020 06:15120 49.6
10/22/2020 06:00  49.7
10/22/2020 05:45120 49.8
10/22/2020 05:30121 49.9
10/22/2020 05:15120 50
10/22/2020 05:00  50.1
10/22/2020 04:45120 50.2
10/22/2020 04:30121 50.2
10/22/2020 04:15120 50.3
10/22/2020 04:00  50.3
10/22/2020 03:45120 50.5
10/22/2020 03:30121 50.7
10/22/2020 03:15120 50.8
10/22/2020 03:00  51
10/22/2020 02:45120 51.1
10/22/2020 02:30121 51.2
10/22/2020 02:15120 51.3
10/22/2020 02:00  51.5
10/22/2020 01:45120 51.6
10/22/2020 01:301211.5251.7
10/22/2020 01:15120 51.8
10/22/2020 01:00  51.9
10/22/2020 00:45120 52
10/22/2020 00:30121 52.1
10/22/2020 00:15120 52.4
10/22/2020 00:00  52.5
10/21/2020 23:45120 52.7
10/21/2020 23:30121 52.9
10/21/2020 23:15120 53
10/21/2020 23:001201.5253.3
10/21/2020 22:451161.5153.4
10/21/2020 22:301211.5253.7
10/21/2020 22:151161.5153.8
10/21/2020 22:001161.5154.1
10/21/2020 21:451201.5254.3
10/21/2020 21:301161.5154.5
10/21/2020 21:151201.5254.7
10/21/2020 21:00  54.8
10/21/2020 20:45120 55
10/21/2020 20:301211.5255.3
10/21/2020 20:15120 55.5
10/21/2020 20:00  55.5
10/21/2020 19:45120 55.7
10/21/2020 19:30121 55.8
10/21/2020 19:15120 56
10/21/2020 19:00  56.1
10/21/2020 18:45120 56.2
10/21/2020 18:30121 56.3
10/21/2020 18:15120 56.5
10/21/2020 18:001201.5256.6
10/21/2020 17:451241.53 
10/21/2020 17:301211.52 
10/21/2020 17:151201.52 
10/21/2020 17:001241.53 
10/21/2020 16:451241.5356.6
10/21/2020 16:301211.5256.5
10/21/2020 16:151241.5356.4
10/21/2020 16:001241.5356.2
10/21/2020 15:451201.5256.2
10/21/2020 15:301251.5356.1
10/21/2020 15:151241.5356
10/21/2020 15:001201.5255.9
10/21/2020 14:45120 55.7
10/21/2020 14:301211.5255.5
10/21/2020 14:151241.5355.3
10/21/2020 14:001201.5255
10/21/2020 13:45120 54.7
10/21/2020 13:30121 54.5
10/21/2020 13:15120 54.2
10/21/2020 13:00  54
10/21/2020 12:45120 53.8
10/21/2020 12:30121 53.7
10/21/2020 12:15120 53.6
10/21/2020 12:00  53.6
10/21/2020 11:45120 53.5
10/21/2020 11:30121 53.5
10/21/2020 11:15120 53.4
10/21/2020 11:00  53.5
10/21/2020 10:45120 53.3
10/21/2020 10:30121 53.1
10/21/2020 10:15120 53
10/21/2020 09:45120  
10/21/2020 09:30121  
10/21/2020 09:15120 53
10/21/2020 09:00  53.1
10/21/2020 08:45120  
10/21/2020 08:30121 53.1
10/21/2020 08:15120 53.2
10/21/2020 08:00  53.2
10/21/2020 07:45120 53.3
10/21/2020 07:30121 53.4
10/21/2020 07:15120 53.5
10/21/2020 07:00  53.6
10/21/2020 06:45120 53.6
10/21/2020 06:30121 53.7
10/21/2020 06:15120 53.7
10/21/2020 06:00  53.8
10/21/2020 05:45120 53.8
10/21/2020 05:30121 54
10/21/2020 05:15120 54
10/21/2020 05:00  54.1
10/21/2020 04:45120 54.2
10/21/2020 04:30121 54.2
10/21/2020 04:15120 54.3
10/21/2020 04:00  54.4
10/21/2020 03:45120 54.4
10/21/2020 03:30121 54.5
10/21/2020 03:15120 54.6
10/21/2020 03:00  54.7
10/21/2020 02:45120 54.8
10/21/2020 02:30121 54.8
10/21/2020 02:15120 54.9
10/21/2020 02:00  55
10/21/2020 01:45120 55.1
10/21/2020 01:301211.5255.2
10/21/2020 01:15120 55.3
10/21/2020 01:00  55.4
10/21/2020 00:45120 55.5
10/21/2020 00:30121 55.6
10/21/2020 00:15120 55.6
10/21/2020 00:00  55.8
10/20/2020 23:45120 55.8
10/20/2020 23:30121 55.9
10/20/2020 23:15120 56.1
10/20/2020 23:00  56.2
10/20/2020 22:45120 56.3
10/20/2020 22:30121 56.4
10/20/2020 22:15120 56.5
10/20/2020 22:00  56.7
10/20/2020 21:45120 57
10/20/2020 21:30121 57.3
10/20/2020 21:15120 57.5
10/20/2020 21:00  57.8
10/20/2020 20:45120 58
10/20/2020 20:30121 58.2
10/20/2020 20:15120 58.4
10/20/2020 20:00  58.5
10/20/2020 19:45120 58.6
10/20/2020 19:30121 58.7
10/20/2020 19:15120 58.8
10/20/2020 19:00  59
10/20/2020 18:45120 59.2
10/20/2020 18:30121 59.2
10/20/2020 18:15120 59.3
10/20/2020 17:45120  
10/20/2020 17:30121 59.3
10/20/2020 17:15120 59.2
10/20/2020 17:00  59.3
10/20/2020 16:45120 59.1
10/20/2020 16:30121 59
10/20/2020 16:15120 58.7
10/20/2020 16:00  58.3
10/20/2020 15:45120 58.3
10/20/2020 15:30121 58.2
10/20/2020 15:15120 57.8
10/20/2020 15:00  57.4
10/20/2020 14:45120 57.1
10/20/2020 14:30121 56.7
10/20/2020 14:15120 56.4
10/20/2020 14:00  56.2
10/20/2020 13:45120 56.1
10/20/2020 13:30121 55.7
10/20/2020 13:15120 55.4
10/20/2020 13:00  54.9
10/20/2020 12:45120 54.6
10/20/2020 12:30121 54.4
10/20/2020 12:15120 54
10/20/2020 12:00  53.9
10/20/2020 11:45120 53.6
10/20/2020 11:30121 53.6
10/20/2020 11:15120 53.4
10/20/2020 11:00  53.3
10/20/2020 10:45120 53.1
10/20/2020 10:30121 53
10/20/2020 10:15120 52.9
10/20/2020 10:00  52.8
10/20/2020 09:45120 52.7
10/20/2020 09:30121 52.7
10/20/2020 09:15120 52.8
10/20/2020 08:45120 52.8
10/20/2020 08:30121 52.9
10/20/2020 08:15120 53
10/20/2020 08:00  53.1
10/20/2020 07:45120 53.1
10/20/2020 07:30121 53.2
10/20/2020 07:15120 53.2
10/20/2020 07:00  53.3
10/20/2020 06:45120 53.4
10/20/2020 06:30121 53.5
10/20/2020 06:15120 53.6
10/20/2020 06:00  53.6
10/20/2020 05:45120 53.7
10/20/2020 05:30121 53.8
10/20/2020 05:15120 53.8
10/20/2020 05:00  53.9
10/20/2020 04:45120 54
10/20/2020 04:30121 54
10/20/2020 04:15120 54.1
10/20/2020 04:00  54.2
10/20/2020 03:45120 54.3
10/20/2020 03:30121 54.3
10/20/2020 03:15120 54.5
10/20/2020 03:00  54.6
10/20/2020 02:45120 54.7
10/20/2020 02:301211.5254.7
10/20/2020 02:151161.5154.8
10/20/2020 02:00  54.9
10/20/2020 01:451161.5155
10/20/2020 01:301211.5255.1
10/20/2020 01:15  55.2
10/20/2020 01:00  55.3
10/20/2020 00:45  55.5
10/20/2020 00:301161.5155.6
10/20/2020 00:15  55.7
10/20/2020 00:00  55.9
10/19/2020 23:45  56
10/19/2020 23:30  56.1
10/19/2020 23:15  56.2
10/19/2020 23:00  56.4
10/19/2020 22:45  56.6
10/19/2020 22:30  56.7
10/19/2020 22:15  56.9
10/19/2020 22:00  57.1
10/19/2020 21:45  57.4
10/19/2020 21:30  57.6
10/19/2020 21:15  57.8
10/19/2020 21:00  58
10/19/2020 20:45  58.2
10/19/2020 20:30  58.4
10/19/2020 20:15  58.5
10/19/2020 20:00  58.6
10/19/2020 19:45  58.7
10/19/2020 19:30  58.7
10/19/2020 19:15  58.8
10/19/2020 19:00  58.9
10/19/2020 18:15  58.9
10/19/2020 18:00  59
10/19/2020 17:45  58.9
10/19/2020 17:30  59
10/19/2020 17:15  58.9
10/19/2020 17:00  58.8
10/19/2020 16:45  58.7
10/19/2020 16:30  58.5
10/19/2020 16:15  58.3
10/19/2020 16:00  58.2
10/19/2020 15:45  57.9
10/19/2020 15:30  57.7
10/19/2020 15:15  57.4
10/19/2020 15:00  57
10/19/2020 14:45  56.7
10/19/2020 14:30  56.2
10/19/2020 14:15  55.9
10/19/2020 14:00  55.5
10/19/2020 13:45  55.2
10/19/2020 13:30  54.8
10/19/2020 13:15  54.7
10/19/2020 13:00  54.6
10/19/2020 12:45  54.6
10/19/2020 12:30  54.4
10/19/2020 12:15  54.3
10/19/2020 12:00  54.2
10/19/2020 11:45  53.9
10/19/2020 11:30  53.8
10/19/2020 11:15  53.6
10/19/2020 11:00  53.4
10/19/2020 10:45  53.3
10/19/2020 10:30  53.2
10/19/2020 08:45  53.2
10/19/2020 08:30  53.3
10/19/2020 08:15  53.3
10/19/2020 08:00  53.4
10/19/2020 07:45  53.4
10/19/2020 07:30  53.5
10/19/2020 07:15  53.5
10/19/2020 07:00  53.6
10/19/2020 06:45  53.7
10/19/2020 06:30  53.7
10/19/2020 06:15  53.8
10/19/2020 06:00  53.9
10/19/2020 05:45  54
10/19/2020 05:30  54.1
10/19/2020 05:00  54.1
10/19/2020 04:45  54.2
10/19/2020 04:30  54.3
10/19/2020 04:15  54.3
10/19/2020 04:00  54.4
10/19/2020 03:45  54.4
10/19/2020 03:30  54.5
10/19/2020 03:15  54.6
10/19/2020 03:00  54.6
10/19/2020 02:45  54.7
10/19/2020 02:30  54.7
10/19/2020 02:151161.5154.9
10/19/2020 02:00  54.9
10/19/2020 01:45  55
10/19/2020 01:301161.5155
10/19/2020 01:15  55.1
10/19/2020 01:00  55.2
10/19/2020 00:45  55.3
10/19/2020 00:301161.5155.5
10/19/2020 00:151121.555.7
10/19/2020 00:001161.5155.8
10/18/2020 23:451121.555.9
10/18/2020 23:301161.5156.1
10/18/2020 23:151161.5156.2
10/18/2020 23:001121.556.4
10/18/2020 22:451161.5156.4
10/18/2020 22:301161.5156.5
10/18/2020 22:151121.556.7
10/18/2020 22:00  56.9
10/18/2020 21:45  57.1
10/18/2020 21:301121.557.2
10/18/2020 21:151121.557.4
10/18/2020 21:001161.5157.7
10/18/2020 20:451161.5157.9
10/18/2020 20:301121.558.2
10/18/2020 20:151161.5158.4
10/18/2020 20:00  58.5
10/18/2020 19:45  58.6
10/18/2020 19:301161.5158.7
10/18/2020 19:15  58.8
10/18/2020 19:00  58.9
10/18/2020 18:45  58.9
10/18/2020 18:30  59
10/18/2020 18:15  59
10/18/2020 18:00  59.1
10/18/2020 17:45  59.1
10/18/2020 17:30  59
10/18/2020 17:15  59
10/18/2020 17:00  58.9
10/18/2020 16:45  58.7
10/18/2020 16:30  58.6
10/18/2020 16:15  58.4
10/18/2020 16:00  58.2
10/18/2020 15:45  58
10/18/2020 15:30  57.7
10/18/2020 15:15  57.4
10/18/2020 15:00  57.2
10/18/2020 14:45  56.9
10/18/2020 14:30  56.4
10/18/2020 14:15  56
10/18/2020 14:00  55.5
10/18/2020 13:45  55.1
10/18/2020 13:30  54.8
10/18/2020 13:15  54.4
10/18/2020 13:00  54
10/18/2020 12:451161.5153.7
10/18/2020 12:301161.5153.5
10/18/2020 12:151121.553.2
10/18/2020 12:00  53
10/18/2020 11:45  52.9
10/18/2020 11:301121.552.7
10/18/2020 11:15  52.5
10/18/2020 11:00  52.3
10/18/2020 10:45  52.2
10/18/2020 10:30  52.1
10/18/2020 10:15  52
10/18/2020 10:00  52
10/18/2020 09:45  51.9
10/18/2020 09:30  52
10/18/2020 09:15  52
10/18/2020 09:00  52.1
10/18/2020 08:45  52.1
10/18/2020 08:30  52.2
10/18/2020 08:15  52.3
10/18/2020 08:00  52.3
10/18/2020 07:45  52.4
10/18/2020 07:30  52.5
10/18/2020 07:15  52.6
10/18/2020 07:00  52.7
10/18/2020 06:45  52.8
10/18/2020 06:30  52.9
10/18/2020 06:15  52.9
10/18/2020 06:00  53
10/18/2020 05:45  53.1
10/18/2020 05:30  53.2
10/18/2020 05:15  53.3
10/18/2020 05:00  53.4
10/18/2020 04:45  53.5
10/18/2020 04:30  53.6
10/18/2020 04:15  53.7
10/18/2020 04:00  53.8
10/18/2020 03:45  53.9
10/18/2020 03:301121.554
10/18/2020 03:151161.5154.1
10/18/2020 03:001121.554.1
10/18/2020 02:45  54.2
10/18/2020 02:30  54.3
10/18/2020 02:151121.554.5
10/18/2020 02:001161.5154.6
10/18/2020 01:451161.5154.7
10/18/2020 01:301121.554.8
10/18/2020 01:15  54.9
10/18/2020 01:00  55
10/18/2020 00:45  55.1
10/18/2020 00:30  55.2
10/18/2020 00:15  55.3
10/18/2020 00:00  55.4
10/17/2020 23:45  55.5
10/17/2020 23:30  55.6
10/17/2020 23:15  55.7
10/17/2020 23:00  55.9
10/17/2020 22:45  56
10/17/2020 22:30  56.1
10/17/2020 22:15  56.2
10/17/2020 22:00  56.4
10/17/2020 21:45  56.6
10/17/2020 21:30  56.7
10/17/2020 21:15  56.9
10/17/2020 21:00  57.1
10/17/2020 20:45  57.3
10/17/2020 20:30  57.5
10/17/2020 20:15  57.6
10/17/2020 20:00  57.8
10/17/2020 19:45  58
10/17/2020 19:30  58.2
10/17/2020 19:15  58.2
10/17/2020 19:00  58.3
10/17/2020 18:45  58.4
10/17/2020 18:30  58.4
10/17/2020 18:15  58.5
10/17/2020 17:45  58.5
10/17/2020 17:30  58.4
10/17/2020 17:15  58.4
10/17/2020 17:00  58.3
10/17/2020 16:45  58.3
10/17/2020 16:30  58.2
10/17/2020 16:15  58.2
10/17/2020 16:00  58.1
10/17/2020 15:45  57.9
10/17/2020 15:301121.557.5
10/17/2020 15:151161.5157.3
10/17/2020 15:001121.557
10/17/2020 14:45  56.7
10/17/2020 14:301121.556.4
10/17/2020 14:151161.5156.2
10/17/2020 14:00  55.7
10/17/2020 13:451161.5155.4
10/17/2020 13:301121.555.1
10/17/2020 13:151161.5154.8
10/17/2020 13:001121.554.5
10/17/2020 12:451161.5154.2
10/17/2020 12:301161.5153.9
10/17/2020 12:15  53.6
10/17/2020 12:00  53.4
10/17/2020 11:451161.5153.1
10/17/2020 11:301161.5153
10/17/2020 11:151121.552.8
10/17/2020 11:00  52.7
10/17/2020 10:45  52.6
10/17/2020 10:301121.552.4
10/17/2020 10:15  52.4
10/17/2020 10:00  52.3
10/17/2020 09:45  52.2
10/17/2020 09:30  52.3
10/17/2020 09:15  52.3
10/17/2020 09:00  52.4
10/17/2020 08:30  52.4
10/17/2020 08:15  52.5
10/17/2020 08:00  52.5
10/17/2020 07:45  52.6
10/17/2020 07:30  52.7
10/17/2020 07:00  52.7
10/17/2020 06:45  52.8
10/17/2020 06:30  52.9
10/17/2020 06:15  52.9
10/17/2020 06:00  53
10/17/2020 05:45  53
10/17/2020 05:30  53.1
10/17/2020 05:15  53.2
10/17/2020 05:00  53.2
10/17/2020 04:45  53.3
10/17/2020 04:30  53.4
10/17/2020 04:15  53.4
10/17/2020 04:00  53.5
10/17/2020 03:45  53.5
10/17/2020 03:30  53.6
10/17/2020 03:15  53.7
10/17/2020 02:45  53.7
10/17/2020 02:30  53.8
10/17/2020 02:15  53.9
10/17/2020 02:00  54
10/17/2020 01:45  54.1
10/17/2020 01:301121.554.2
10/17/2020 01:15  54.3
10/17/2020 01:00  54.3
10/17/2020 00:45  54.4
10/17/2020 00:30  54.5
10/17/2020 00:15  54.6
10/17/2020 00:00  54.8
10/16/2020 23:45  54.9
10/16/2020 23:30  55
10/16/2020 23:15  55.1
10/16/2020 23:00  55.3
10/16/2020 22:45  55.5
10/16/2020 22:30  55.7
10/16/2020 22:15  55.9
10/16/2020 22:00  56.1
10/16/2020 21:45  56.4
10/16/2020 21:30  56.7
10/16/2020 21:15  56.9
10/16/2020 21:00  57.2
10/16/2020 20:45  57.3
10/16/2020 20:30  57.4
10/16/2020 20:15  57.5
10/16/2020 20:00  57.5
10/16/2020 19:45  57.7
10/16/2020 19:30  57.8
10/16/2020 19:15  57.8
10/16/2020 19:00  57.9
10/16/2020 17:45  57.9
10/16/2020 17:30  57.8
10/16/2020 17:15  57.7
10/16/2020 17:00  57.5
10/16/2020 16:45  57.3
10/16/2020 16:30  57.2
10/16/2020 16:15  57.1
10/16/2020 16:00  56.8
10/16/2020 15:45  56.4
10/16/2020 15:30  56.1
10/16/2020 15:15  55.7
10/16/2020 15:00  55.4
10/16/2020 14:45  54.9
10/16/2020 14:30  54.5
10/16/2020 14:15  54
10/16/2020 14:00  53.5
10/16/2020 13:45  53
10/16/2020 13:30  52.7
10/16/2020 13:15  52.4
10/16/2020 13:00  52
10/16/2020 12:45  51.8
10/16/2020 12:30  51.5
10/16/2020 12:15  51.3
10/16/2020 12:00  51
10/16/2020 11:45  50.8
10/16/2020 11:30  50.6
10/16/2020 11:15  50.5
10/16/2020 11:00  50.3
10/16/2020 10:45  50.2
10/16/2020 10:30  50.2
10/16/2020 10:15  50.1
10/16/2020 10:00  50
10/16/2020 09:45  50.1
10/16/2020 09:30  50.1
10/16/2020 09:15  50.2
10/16/2020 09:00  50.2
10/16/2020 08:45  50.3
10/16/2020 08:30  50.4
10/16/2020 08:15  50.4
10/16/2020 08:00  50.6
10/16/2020 07:45  50.6
10/16/2020 07:30  50.7
10/16/2020 07:15  50.8
10/16/2020 07:00  50.9
10/16/2020 06:45  51
10/16/2020 06:30  51.1
10/16/2020 06:15  51.2
10/16/2020 06:00  51.3
10/16/2020 05:45  51.4
10/16/2020 05:30  51.5
10/16/2020 05:15  51.6
10/16/2020 05:00  51.7
10/16/2020 04:45  51.8
10/16/2020 04:30  51.9
10/16/2020 04:15  52
10/16/2020 04:00  52
10/16/2020 03:45  52.1
10/16/2020 03:30  52.3
10/16/2020 03:15  52.4
10/16/2020 03:00  52.5
10/16/2020 02:45  52.6
10/16/2020 02:30  52.8
10/16/2020 02:151121.552.8
10/16/2020 02:00  53
10/16/2020 01:45  53.1
10/16/2020 01:301121.553.3
10/16/2020 01:15  53.4
10/16/2020 01:00  53.6
10/16/2020 00:45  53.7
10/16/2020 00:30  53.8
10/16/2020 00:15  54
10/16/2020 00:00  54.2
10/15/2020 23:45  54.3
10/15/2020 23:30  54.4
10/15/2020 23:15  54.6
10/15/2020 23:00  54.8
10/15/2020 22:45  55
10/15/2020 22:30  55.2
10/15/2020 22:15  55.4
10/15/2020 22:00  55.6
10/15/2020 21:45  55.8
10/15/2020 21:30  56.1
10/15/2020 21:15  56.3
10/15/2020 21:00  56.5
10/15/2020 20:45  56.8
10/15/2020 20:30  56.9
10/15/2020 20:15  57
10/15/2020 20:00  57.1
10/15/2020 19:45  57.2
10/15/2020 19:30  57.4
10/15/2020 19:15  57.4
10/15/2020 19:00  57.5
10/15/2020 18:45  57.6
10/15/2020 18:30  57.7
10/15/2020 17:30  57.7
10/15/2020 17:15  57.6
10/15/2020 17:00  57.5
10/15/2020 16:45  57.4
10/15/2020 16:30  57.1
10/15/2020 16:15  56.9
10/15/2020 16:00  56.7
10/15/2020 15:451121.556.4
10/15/2020 15:301121.556.1
10/15/2020 15:151121.555.9
10/15/2020 15:001161.5155.5
10/15/2020 14:451121.555.1
10/15/2020 14:301161.5154.7
10/15/2020 14:151161.5154.3
10/15/2020 14:00  54.1
10/15/2020 13:451161.5153.8
10/15/2020 13:301121.553.4
10/15/2020 13:151161.5153
10/15/2020 13:001161.5152.7
10/15/2020 12:451121.552.4
10/15/2020 12:301161.5152.1
10/15/2020 12:151161.5152
10/15/2020 12:001121.551.8
10/15/2020 11:451161.5151.6
10/15/2020 11:301121.551.5
10/15/2020 11:151161.5151.3
10/15/2020 11:00  51.2
10/15/2020 10:45  51.1
10/15/2020 10:301161.5151.1
10/15/2020 10:15  51
10/15/2020 09:45  51
10/15/2020 09:30  50.9
10/15/2020 09:15  51.1
10/15/2020 09:00  51.2
10/15/2020 08:45  51.2
10/15/2020 08:30  51.4
10/15/2020 08:15  51.4
10/15/2020 08:00  51.5
10/15/2020 07:45  51.6
10/15/2020 07:30  51.7
10/15/2020 07:15  51.7
10/15/2020 07:00  51.8
10/15/2020 06:45  52
10/15/2020 06:30  52
10/15/2020 06:15  52.2
10/15/2020 06:00  52.2
10/15/2020 05:45  52.3
10/15/2020 05:30  52.4
10/15/2020 05:15  52.4
10/15/2020 05:00  52.5
10/15/2020 04:45  52.7
10/15/2020 04:30  52.8
10/15/2020 04:15  52.8
10/15/2020 04:00  53
10/15/2020 03:45  53.1
10/15/2020 03:30  53.2
10/15/2020 03:15  53.2
10/15/2020 03:00  53.3
10/15/2020 02:00  53.6
10/15/2020 01:00  53.9
10/15/2020 00:00  54.6
10/14/2020 23:00  55.2
10/14/2020 22:00  56
10/14/2020 21:00  56.8
10/14/2020 20:00  57.5
10/14/2020 19:00  57.7
10/14/2020 18:00  58.1
10/14/2020 17:151161.51 
10/14/2020 17:00  58.2
10/14/2020 16:151161.51 
10/14/2020 16:00  57.8
10/14/2020 15:15120  
10/14/2020 15:00  56.9
10/14/2020 14:151201.52 
10/14/2020 14:00  55.7
10/14/2020 13:151201.52 
10/14/2020 13:00  54.6
10/14/2020 12:151201.52 
10/14/2020 12:00  53.5
10/14/2020 11:151161.51 
10/14/2020 11:00  52.9
10/14/2020 10:151121.5 
10/14/2020 10:00  52.7
10/14/2020 09:00  52.8
10/14/2020 08:00  53.1
10/14/2020 07:001121.553.5
10/14/2020 06:001121.554.1
10/14/2020 05:001081.4954.5
10/14/2020 04:00  55.1
10/14/2020 03:301121.5 
10/14/2020 03:00  55.7
10/14/2020 01:45  56.3
10/14/2020 00:45  56.4
10/13/2020 23:45  56.7
10/13/2020 22:45  57.1
10/13/2020 21:45  57.4
10/13/2020 20:45  57.6
10/13/2020 19:45108  
10/13/2020 19:15  57.7
10/13/2020 18:45112  
10/13/2020 17:45108  
10/13/2020 17:30  57.8
10/13/2020 16:451081.49 
10/13/2020 16:30  57.5
10/13/2020 15:301121.556.4
10/13/2020 14:30109 55.6
10/13/2020 13:30  54.7
10/13/2020 12:30  54.2
10/13/2020 11:30  53.6
10/13/2020 10:30109 53.3
10/13/2020 09:15  53.2
10/13/2020 08:45108  
10/13/2020 08:15  53.4
10/13/2020 07:15  53.5
10/13/2020 06:15  53.9
10/13/2020 05:15  54.2
10/13/2020 04:15  54.5
10/13/2020 03:15  54.8
10/13/2020 01:45  55.5
10/13/2020 00:45  55.9
10/12/2020 23:45  56.5
10/12/2020 22:45  57.2
10/12/2020 21:45  57.8
10/12/2020 20:45  58.5
10/12/2020 19:45  58.9
10/12/2020 18:45  59.2
10/12/2020 17:45  59.2
10/12/2020 16:45  59.1
10/12/2020 15:45  58.1
10/12/2020 15:15 1.49 
10/12/2020 14:45108 57.1
10/12/2020 14:15 1.5 
10/12/2020 13:45112 56
10/12/2020 13:00 1.49 
10/12/2020 12:45112 54.8
10/12/2020 11:45108 53.6
10/12/2020 10:45  52.8
10/12/2020 09:45  52.3
10/12/2020 08:45  52.2
10/12/2020 07:45  52.4
10/12/2020 06:45  52.6
10/12/2020 05:45  52.7
10/12/2020 04:45108 53
10/12/2020 03:45112 53.3
10/12/2020 03:30 1.49 
10/12/2020 02:45  53.8
10/12/2020 01:45  54.2
10/12/2020 01:151121.5 
10/12/2020 00:45  54.6
10/12/2020 00:151081.49 
10/11/2020 23:45  55.1
10/11/2020 22:45  55.8
10/11/2020 21:45  56.6
10/11/2020 20:45  57.2
10/11/2020 19:45  57.6
10/11/2020 18:45  57.9
10/11/2020 16:45  57.8
10/11/2020 15:45  56.9
10/11/2020 14:45  55.4
10/11/2020 14:151081.49 
10/11/2020 13:45  54.1
10/11/2020 12:45  52.9
10/11/2020 12:151121.5 
10/11/2020 11:45  52
10/11/2020 11:001121.5 
10/11/2020 10:45  51.4
10/11/2020 09:45108 51.1
10/11/2020 08:45  51.4
10/11/2020 07:45  51.6
10/11/2020 06:45  51.9
10/11/2020 05:45  52.2
10/11/2020 04:45  52.7
10/11/2020 03:45  53
10/11/2020 02:00  53.6
10/11/2020 01:45108  
10/11/2020 01:00  54
10/11/2020 00:45105  
10/11/2020 00:00  54.5
10/10/2020 23:45108  
10/10/2020 23:00  54.9
10/10/2020 22:00  55.2
10/10/2020 20:45  55.4
10/10/2020 18:00  55.6
10/10/2020 17:00  55.4
10/10/2020 16:45108  
10/10/2020 16:00 1.4955.2
10/10/2020 15:45105  
10/10/2020 15:00  54.8
10/10/2020 14:00  54.5
10/10/2020 13:00  54
10/10/2020 12:15 1.48 
10/10/2020 12:00  53.8
10/10/2020 08:30  53.8
10/10/2020 07:30  54.1
10/10/2020 06:30  54.4
10/10/2020 05:30  54.8
10/10/2020 04:30  55.1
10/10/2020 03:30  55.7
10/10/2020 01:45  56.6
10/10/2020 00:45  57.3
10/09/2020 23:45  58.2
10/09/2020 23:001051.48 
10/09/2020 22:45  59.1
10/09/2020 22:001021.47 
10/09/2020 21:45  60
10/09/2020 21:001021.47 
10/09/2020 20:45  60.5
10/09/2020 19:45  61.1
10/09/2020 18:45  61.3
10/09/2020 17:45  61.1
10/09/2020 16:45  60.5
10/09/2020 15:45  59.6
10/09/2020 14:45  58
10/09/2020 13:45  56.5
10/09/2020 12:45  55.2
10/09/2020 11:45  54.3
10/09/2020 10:45  53.8
10/09/2020 09:45  53.5
10/09/2020 08:45  53.8
10/09/2020 07:45  54.1
10/09/2020 06:45  54.5
10/09/2020 05:45  55
10/09/2020 04:45  55.7
10/09/2020 03:45  56.2
10/09/2020 02:00  57.2
10/09/2020 01:301051.48 
10/09/2020 01:00  57.9
10/09/2020 00:00  58.8
10/08/2020 23:00  59.5
10/08/2020 22:00  60.2
10/08/2020 21:00  60.7
10/08/2020 20:00  61.1
10/08/2020 18:15  61.4
10/08/2020 17:15  61.3
10/08/2020 16:15  60.5
10/08/2020 15:15  59.5
10/08/2020 14:15  58.2
10/08/2020 13:15  56.6
10/08/2020 12:15  55.7
10/08/2020 11:15  55
10/08/2020 10:00  54.5
10/08/2020 08:45  54.6
10/08/2020 07:45  55
10/08/2020 06:45  55.5
10/08/2020 05:45  56
10/08/2020 04:45  56.6
10/08/2020 03:45  57.2
10/08/2020 02:151051.48 
10/08/2020 02:00  58.2
10/08/2020 01:151021.47 
10/08/2020 01:00  58.9
10/08/2020 00:00  59.9
10/07/2020 23:00  60.8
10/07/2020 22:00  61.6
10/07/2020 21:001021.4762.2
10/07/2020 20:00  62.7
10/07/2020 19:00  63
10/07/2020 18:00  62.7
10/07/2020 17:00  62.2
10/07/2020 16:00  61.1
10/07/2020 15:00  59.7
10/07/2020 14:00  58.3
10/07/2020 13:00  57
10/07/2020 12:00  56.4
10/07/2020 11:00  56
10/07/2020 10:00  55.6
10/07/2020 08:45  55.7
10/07/2020 07:45  56.1
10/07/2020 06:45  56.7
10/07/2020 05:45  57.2
10/07/2020 04:45  57.7
10/07/2020 03:45  58.3
10/07/2020 02:00  59.4
10/07/2020 01:00  60.3
10/07/2020 00:00  61.3
10/06/2020 23:00  62.2
10/06/2020 22:00  63.2
10/06/2020 21:00  63.9
10/06/2020 20:301021.47 
10/06/2020 20:00  64.6
10/06/2020 19:30981.46 
10/06/2020 18:30  64.9
10/06/2020 17:30  64.4
10/06/2020 16:30  63.4
10/06/2020 15:30  62
10/06/2020 14:30951.4560.3
10/06/2020 13:30  58.5
10/06/2020 12:30  57.3
10/06/2020 11:30  56.6
10/06/2020 10:30  56
10/06/2020 09:30  55.9
10/06/2020 08:30  56.3
10/06/2020 07:30  56.7
10/06/2020 06:30  57.1
10/06/2020 05:30  57.7
10/06/2020 04:30  58.2
10/06/2020 04:00921.44 
10/06/2020 03:30  58.8
10/06/2020 01:45  60.1
10/06/2020 00:45  61
10/05/2020 23:45  62
10/05/2020 22:45  62.9
10/05/2020 21:45  63.9
10/05/2020 20:45  64.5
10/05/2020 19:45  65.3
10/05/2020 18:45  65.5
10/05/2020 17:45  65.1
10/05/2020 16:45  64.3
10/05/2020 15:45  62.9
10/05/2020 14:45  61.1
10/05/2020 13:45  59.5
10/05/2020 12:45  58.1
10/05/2020 11:45  57.3
10/05/2020 10:45  56.6
10/05/2020 09:45  56.4
10/05/2020 08:45  56.7
10/05/2020 08:30921.44 
10/05/2020 07:45  57.1
10/05/2020 06:45  57.6
10/05/2020 05:45  58.1
10/05/2020 04:45  58.7
10/05/2020 04:15951.45 
10/05/2020 03:45  59.1
10/05/2020 02:00951.4560
10/05/2020 01:00  60.8
10/05/2020 00:45921.44 
10/05/2020 00:00  61.8
10/04/2020 23:00  62.6
10/04/2020 22:00  63.5
10/04/2020 21:00  64.3
10/04/2020 20:00  64.7
10/04/2020 19:00  65.2
10/04/2020 18:00  65.1
10/04/2020 17:00  64.7
10/04/2020 16:00  63.7
10/04/2020 15:00  62.3
10/04/2020 14:00  60.3
10/04/2020 13:00  58.6
10/04/2020 12:00  57.7
10/04/2020 11:00  57.2
10/04/2020 10:30921.44 
10/04/2020 10:00  56.8
10/04/2020 09:00  56.9
10/04/2020 08:00  57.3
10/04/2020 07:00  57.9
10/04/2020 06:00  58.4
10/04/2020 05:00  58.9
10/04/2020 04:15951.45 
10/04/2020 04:00  59.4
10/04/2020 03:15921.44 
10/04/2020 03:00  59.9
10/04/2020 02:00  60.7
10/04/2020 01:00  61.6
10/04/2020 00:00  62.5
10/03/2020 23:00  63.4
10/03/2020 22:00  64.3
10/03/2020 21:00  64.9
10/03/2020 20:00  65.7
10/03/2020 18:45  65.9
10/03/2020 17:45  65.8
10/03/2020 16:45  64.8
10/03/2020 16:30921.44 
10/03/2020 15:45  63.4
10/03/2020 14:45  61.8
10/03/2020 13:45  60
10/03/2020 12:45  58.8
10/03/2020 11:45  58
10/03/2020 10:45  57.4
10/03/2020 09:45  57.1
10/03/2020 08:45  57.3
10/03/2020 07:45  57.7
10/03/2020 06:45  58.2
10/03/2020 05:45  58.6
10/03/2020 04:45  59.2
10/03/2020 03:45  59.7
10/03/2020 02:00  61.2
10/03/2020 01:30881.43 
10/03/2020 01:00  62.1
10/03/2020 00:00  63
10/02/2020 23:00  64.1
10/02/2020 22:00  64.9
10/02/2020 21:00  65.8
10/02/2020 20:00  66.4
10/02/2020 19:00  66.6
10/02/2020 18:00  66.2
10/02/2020 17:00  65.5
10/02/2020 16:00  64.1
10/02/2020 15:00  62.4
10/02/2020 14:00  61
10/02/2020 13:00  59.2
10/02/2020 12:00  58
10/02/2020 11:00  57.3
10/02/2020 10:00  56.8
10/02/2020 09:00  57
10/02/2020 08:00  57.4
10/02/2020 07:00  58
10/02/2020 06:00  58.5
10/02/2020 05:00  59
10/02/2020 04:00  59.6
10/02/2020 03:00  60.3
10/02/2020 02:00  61.1
10/02/2020 01:30881.43 
10/02/2020 01:00  62
10/02/2020 00:00  63.1
10/01/2020 23:00  63.8
10/01/2020 22:00  64.8
10/01/2020 21:00  65.6
10/01/2020 20:00881.4366.3
10/01/2020 19:00  66.6
10/01/2020 18:45921.44 
10/01/2020 18:00  66.3
10/01/2020 17:00  65.4
10/01/2020 16:00  64
10/01/2020 15:00  62.6
10/01/2020 14:00  60.9
10/01/2020 13:00  59.1
10/01/2020 12:30921.44 
10/01/2020 12:00  58.2
10/01/2020 11:00  57.6
10/01/2020 09:45  57.3
10/01/2020 08:45  57.5
10/01/2020 07:45  58
10/01/2020 06:45  58.5
10/01/2020 05:45  58.9
10/01/2020 04:45  59.5
10/01/2020 03:45  60.1
10/01/2020 02:00  61.6
10/01/2020 01:30881.43 
10/01/2020 01:00  62.4
10/01/2020 00:00  63.2
09/30/2020 23:00  64.3
09/30/2020 22:00  65.3
09/30/2020 21:00  66.1
09/30/2020 20:00  66.8
09/30/2020 19:00  67
09/30/2020 18:00  66.8
09/30/2020 17:00  65.9
09/30/2020 16:00  64.4
09/30/2020 15:00  62.7
09/30/2020 14:00  60.9
09/30/2020 13:00  59
09/30/2020 12:00  57.8
09/30/2020 11:00  57.1
09/30/2020 10:00  56.6
09/30/2020 09:00  56.9
09/30/2020 08:00  57.3
09/30/2020 07:00  57.8
09/30/2020 06:00  58.3
09/30/2020 05:00  58.6
09/30/2020 04:00  59.4
09/30/2020 03:00  60.2
09/30/2020 02:00  61.1
09/30/2020 01:30881.43 
09/30/2020 01:00  61.8
09/30/2020 00:00  62.8
09/29/2020 23:00  63.7
09/29/2020 22:00  64.8
09/29/2020 21:00  65.4
09/29/2020 20:00  66.2
09/29/2020 19:00  66.3
09/29/2020 18:00  66.1
09/29/2020 17:30881.43 
09/29/2020 17:00  65.1
09/29/2020 16:00  63.8
09/29/2020 15:00  62
09/29/2020 14:00  60.4
09/29/2020 13:00  58.8
09/29/2020 12:00  57.2
09/29/2020 11:00  56.5
09/29/2020 09:45  56
09/29/2020 08:45  56.2
09/29/2020 07:45  56.8
09/29/2020 06:45  57
09/29/2020 05:45  57.5
09/29/2020 04:45  58
09/29/2020 03:45  58.8
09/29/2020 02:00  60.1
09/29/2020 01:00  61
09/29/2020 00:00  61.8
09/28/2020 23:00  62.5
09/28/2020 22:00  63.7
09/28/2020 21:00  64.2
09/28/2020 20:00  65
09/28/2020 18:30  65.2
09/28/2020 17:30921.4464.8
09/28/2020 16:30951.4563.9
09/28/2020 15:30951.4562.4
09/28/2020 14:30  60.6
09/28/2020 13:30  59.5
09/28/2020 13:00981.46 
09/28/2020 12:30  57.7
09/28/2020 11:30  56.5
09/28/2020 10:30  55.8
09/28/2020 09:30  55.7
09/28/2020 08:30  56
09/28/2020 07:30  56.5
09/28/2020 06:30  57
09/28/2020 05:30  57.5
09/28/2020 04:30  58
09/28/2020 03:30  58.5
09/28/2020 02:00  59.5
09/28/2020 01:00  60.2
09/28/2020 00:00  61
09/27/2020 23:00  62
09/27/2020 22:00  62.7
09/27/2020 21:00  63.3
09/27/2020 20:00  63.9
09/27/2020 19:00  64.5
09/27/2020 18:00  64.3
09/27/2020 17:00  63.8
09/27/2020 16:301021.47 
09/27/2020 16:00  63.1
09/27/2020 15:00  61.6
09/27/2020 14:301051.48 
09/27/2020 14:00  60.2
09/27/2020 13:301091.49 
09/27/2020 13:00  58.4
09/27/2020 12:001121.557.4
09/27/2020 11:00  56.5
09/27/2020 10:151121.5 
09/27/2020 10:00  56.2
09/27/2020 09:151081.49 
09/27/2020 09:00  56.4
09/27/2020 08:00  56.8
09/27/2020 07:00  57.2
09/27/2020 06:00  57.5
09/27/2020 05:00  57.9
09/27/2020 04:15108  
09/27/2020 04:00  58.4
09/27/2020 03:30 1.49 
09/27/2020 03:15112  
09/27/2020 03:00  58.9
09/27/2020 02:00  59.5
09/27/2020 01:00  59.9
09/27/2020 00:00  60.8
09/26/2020 23:00  61.7
09/26/2020 22:00  62.3
09/26/2020 21:00  62.8
09/26/2020 20:00  63.2
09/26/2020 19:151121.5 
09/26/2020 19:00  63.6
09/26/2020 18:151161.51 
09/26/2020 18:00  63.5
09/26/2020 17:00  63.1
09/26/2020 16:00  62.6
09/26/2020 15:151161.51 
09/26/2020 15:00  61.9
09/26/2020 14:151241.53 
09/26/2020 14:00  61.1
09/26/2020 13:151241.53 
09/26/2020 13:00  60.5
09/26/2020 12:00  60.2
09/26/2020 10:15  60.1
09/26/2020 09:301291.54 
09/26/2020 08:45  59.9
09/26/2020 08:301291.54 
09/26/2020 07:00  60.1
09/26/2020 06:301331.55 
09/26/2020 05:15  60.7
09/26/2020 04:15  60.9
09/26/2020 03:15  61.1
09/26/2020 01:45  61.5
09/26/2020 01:301331.55 
09/26/2020 00:45  61.9
09/26/2020 00:30125  
09/25/2020 23:45  62.2
09/25/2020 22:45  62.6
09/25/2020 21:45  63
09/25/2020 21:00 1.53 
09/25/2020 20:45  63.5
09/25/2020 19:45  63.9
09/25/2020 18:301251.5364
09/25/2020 17:30  64
09/25/2020 16:30  63.7
09/25/2020 15:30  63
09/25/2020 14:30  62.2
09/25/2020 13:30  61.1
09/25/2020 12:30  59.7
09/25/2020 11:301291.5459.1
09/25/2020 10:301291.5458.5
09/25/2020 09:301331.55 
09/25/2020 09:15  58.5
09/25/2020 08:15  58.8
09/25/2020 07:15  59.2

Start Stop